When you browse on this site, cookies collect data to enhance your experience and personalize the content and advertising you see.
Visit our Privacy Policy to learn more. By continuing to use the site, you agree to this use of cookies and data.
  • In Spain
  • List of Countries
  • For 7 days
  • Water Temperature
  • Weather Map
  • Weather Widgets
  • user-avatar
    Login

    Hourly Weather Sarajevo

    Today, 4 April, Saturday

    Time Temperature Precipitation Wind Pressure Humidity
    00:00 +4°C° 0 mm 2 mps 686 mmHg 92%
    01:00 +3°C° 0 mm 2 mps 686 mmHg 93%
    02:00 +3°C° 0 mm 2 mps 686 mmHg 92%
    03:00 +1°C° 0 mm 3 mps 686 mmHg 91%
    04:00 +1°C° 0 mm 3 mps 686 mmHg 90%
    05:00 +1°C° 0 mm 3 mps 686 mmHg 84%
    06:00 +2°C° 0 mm 3 mps 687 mmHg 79%
    07:00 +3°C° 0 mm 4 mps 687 mmHg 73%
    08:00 +4°C° 0 mm 4 mps 687 mmHg 69%
    09:00 +5°C° 0 mm 5 mps 688 mmHg 65%
    10:00 +6°C° 0 mm 5 mps 688 mmHg 60%
    11:00 +7°C° 0 mm 6 mps 688 mmHg 59%
    12:00 +8°C° 0 mm 6 mps 688 mmHg 57%
    13:00 +8°C° 0 mm 6 mps 688 mmHg 55%
    14:00 +8°C° 0 mm 7 mps 688 mmHg 58%
    15:00 +6°C° 0 mm 7 mps 687 mmHg 61%
    16:00 +6°C° 0 mm 7 mps 687 mmHg 64%
    17:00 +5°C° 0 mm 6 mps 687 mmHg 70%
    18:00 +5°C° 0 mm 5 mps 688 mmHg 77%
    19:00 +3°C° 0 mm 5 mps 688 mmHg 83%
    20:00 +3°C° 0.1 mm 5 mps 688 mmHg 85%
    21:00 +3°C° 0.1 mm 5 mps 688 mmHg 86%
    22:00 +3°C° 0.1 mm 6 mps 689 mmHg 88%
    23:00 +3°C° 0 mm 6 mps 689 mmHg 87%

    Tomorrow, 5 April, Sunday

    Time Temperature Precipitation Wind Pressure Humidity
    00:00 +3°C° 0 mm 6 mps 689 mmHg 87%
    01:00 +2°C° 0 mm 5 mps 689 mmHg 87%
    02:00 +2°C° 0 mm 6 mps 689 mmHg 87%
    03:00 +2°C° 0 mm 6 mps 689 mmHg 87%
    04:00 +2°C° 0 mm 6 mps 688 mmHg 88%
    05:00 +2°C° 0 mm 6 mps 689 mmHg 86%
    06:00 +2°C° 0 mm 6 mps 689 mmHg 84%
    07:00 +3°C° 0 mm 6 mps 689 mmHg 82%
    08:00 +4°C° 0 mm 7 mps 689 mmHg 76%
    09:00 +4°C° 0 mm 7 mps 690 mmHg 71%
    10:00 +5°C° 0 mm 7 mps 690 mmHg 65%
    11:00 +6°C° 0 mm 7 mps 690 mmHg 62%
    12:00 +8°C° 0 mm 7 mps 691 mmHg 59%
    13:00 +9°C° 0 mm 8 mps 691 mmHg 55%
    14:00 +9°C° 0 mm 7 mps 691 mmHg 57%
    15:00 +8°C° 0 mm 7 mps 691 mmHg 59%
    16:00 +8°C° 0 mm 6 mps 691 mmHg 60%
    17:00 +7°C° 0 mm 6 mps 691 mmHg 67%
    18:00 +5°C° 0 mm 5 mps 691 mmHg 73%
    19:00 +4°C° 0 mm 4 mps 691 mmHg 79%
    20:00 +4°C° 0 mm 3 mps 691 mmHg 82%
    21:00 +3°C° 0 mm 3 mps 692 mmHg 85%
    22:00 +2°C° 0 mm 3 mps 692 mmHg 88%
    23:00 +2°C° 0 mm 3 mps 692 mmHg 88%

    Day after tomorrow, 6 April, Monday

    Time Temperature Precipitation Wind Pressure Humidity
    00:00 +2°C° 0 mm 3 mps 692 mmHg 89%
    01:00 +3°C° 0 mm 2 mps 692 mmHg 89%
    02:00 +2°C° 0 mm 2 mps 692 mmHg 88%
    03:00 +2°C° 0 mm 2 mps 692 mmHg 87%
    04:00 +1°C° 0 mm 2 mps 692 mmHg 86%
    05:00 +2°C° 0 mm 2 mps 692 mmHg 83%
    06:00 +3°C° 0 mm 2 mps 693 mmHg 80%
    07:00 +4°C° 0 mm 2 mps 693 mmHg 76%
    08:00 +4°C° 0 mm 3 mps 693 mmHg 67%
    09:00 +7°C° 0 mm 3 mps 694 mmHg 57%
    10:00 +9°C° 0 mm 3 mps 694 mmHg 48%
    11:00 +10°C° 0 mm 3 mps 694 mmHg 44%
    12:00 +11°C° 0 mm 3 mps 694 mmHg 41%
    13:00 +12°C° 0 mm 3 mps 695 mmHg 38%
    14:00 +12°C° 0 mm 3 mps 694 mmHg 40%
    15:00 +12°C° 0 mm 3 mps 694 mmHg 42%
    16:00 +11°C° 0 mm 3 mps 694 mmHg 44%
    17:00 +9°C° 0 mm 2 mps 694 mmHg 53%
    18:00 +7°C° 0 mm 2 mps 694 mmHg 61%
    19:00 +5°C° 0 mm 2 mps 694 mmHg 69%
    20:00 +4°C° 0 mm 2 mps 694 mmHg 71%
    21:00 +3°C° 0 mm 2 mps 694 mmHg 74%
    22:00 +3°C° 0 mm 2 mps 695 mmHg 76%
    23:00 +2°C° 0 mm 2 mps 695 mmHg 78%

    7 April, Tuesday

    Time Temperature Precipitation Wind Pressure Humidity
    00:00 +2°C° 0 mm 2 mps 694 mmHg 79%
    01:00 +1°C° 0 mm 2 mps 694 mmHg 81%
    02:00 +1°C° 0 mm 2 mps 694 mmHg 81%
    03:00 +1°C° 0 mm 2 mps 694 mmHg 80%
    04:00 -1°C° 0 mm 2 mps 694 mmHg 80%
    05:00 +1°C° 0 mm 2 mps 695 mmHg 73%
    06:00 +2°C° 0 mm 2 mps 695 mmHg 67%
    07:00 +3°C° 0 mm 2 mps 695 mmHg 60%
    08:00 +5°C° 0 mm 2 mps 695 mmHg 51%
    09:00 +8°C° 0 mm 2 mps 696 mmHg 43%
    10:00 +10°C° 0 mm 2 mps 696 mmHg 34%
    11:00 +11°C° 0 mm 3 mps 696 mmHg 32%
    12:00 +12°C° 0 mm 3 mps 696 mmHg 31%
    13:00 +13°C° 0 mm 3 mps 697 mmHg 29%
    14:00 +13°C° 0 mm 3 mps 696 mmHg 31%
    15:00 +12°C° 0 mm 3 mps 696 mmHg 33%
    16:00 +12°C° 0 mm 3 mps 696 mmHg 35%
    17:00 +10°C° 0 mm 3 mps 695 mmHg 44%
    18:00 +7°C° 0 mm 2 mps 695 mmHg 53%
    19:00 +5°C° 0 mm 2 mps 695 mmHg 62%
    20:00 +4°C° 0 mm 2 mps 695 mmHg 65%
    21:00 +3°C° 0 mm 2 mps 695 mmHg 68%
    22:00 +2°C° 0 mm 2 mps 695 mmHg 70%
    23:00 +2°C° 0 mm 2 mps 695 mmHg 71%

    8 April, Wednesday

    Time Temperature Precipitation Wind Pressure Humidity
    00:00 +2°C° 0 mm 2 mps 695 mmHg 73%
    01:00 +1°C° 0 mm 2 mps 695 mmHg 74%
    02:00 +1°C° 0 mm 2 mps 695 mmHg 75%
    03:00 +1°C° 0 mm 2 mps 695 mmHg 75%
    04:00 +1°C° 0 mm 2 mps 695 mmHg 76%
    05:00 +2°C° 0 mm 2 mps 695 mmHg 72%
    06:00 +3°C° 0 mm 2 mps 695 mmHg 67%
    07:00 +4°C° 0 mm 2 mps 695 mmHg 63%
    08:00 +5°C° 0 mm 3 mps 695 mmHg 55%
    09:00 +8°C° 0 mm 3 mps 695 mmHg 47%
    10:00 +10°C° 0 mm 3 mps 696 mmHg 39%
    11:00 +11°C° 0 mm 3 mps 695 mmHg 39%
    12:00 +12°C° 0 mm 3 mps 695 mmHg 38%
    13:00 +13°C° 0 mm 4 mps 695 mmHg 37%
    14:00 +12°C° 0 mm 4 mps 695 mmHg 39%
    15:00 +12°C° 0 mm 4 mps 695 mmHg 40%
    16:00 +12°C° 0 mm 4 mps 694 mmHg 42%
    17:00 +10°C° 0 mm 3 mps 694 mmHg 51%
    18:00 +8°C° 0 mm 3 mps 694 mmHg 61%
    19:00 +5°C° 0 mm 2 mps 693 mmHg 70%
    20:00 +5°C° 0 mm 2 mps 693 mmHg 72%
    21:00 +4°C° 0 mm 2 mps 694 mmHg 75%
    22:00 +3°C° 0 mm 2 mps 694 mmHg 77%
    23:00 +3°C° 0 mm 2 mps 693 mmHg 79%

    9 April, Thursday

    Time Temperature Precipitation Wind Pressure Humidity
    00:00 +3°C° 0 mm 2 mps 693 mmHg 80%
    01:00 +3°C° 0 mm 2 mps 693 mmHg 82%
    02:00 +2°C° 0 mm 2 mps 693 mmHg 83%
    03:00 +2°C° 0 mm 2 mps 693 mmHg 84%
    04:00 +2°C° 0 mm 2 mps 693 mmHg 85%
    05:00 +3°C° 0 mm 2 mps 693 mmHg 81%
    06:00 +4°C° 0 mm 2 mps 693 mmHg 77%
    07:00 +5°C° 0 mm 2 mps 693 mmHg 73%
    08:00 +8°C° 0 mm 2 mps 694 mmHg 64%
    09:00 +10°C° 0 mm 2 mps 694 mmHg 55%
    10:00 +13°C° 0 mm 2 mps 694 mmHg 46%
    11:00 +14°C° 0 mm 2 mps 694 mmHg 44%
    12:00 +15°C° 0 mm 2 mps 694 mmHg 42%
    13:00 +16°C° 0 mm 2 mps 694 mmHg 39%
    14:00 +16°C° 0 mm 3 mps 694 mmHg 40%
    15:00 +16°C° 0 mm 3 mps 694 mmHg 41%
    16:00 +16°C° 0 mm 3 mps 693 mmHg 41%
    17:00 +12°C° 0 mm 3 mps 693 mmHg 50%
    18:00 +10°C° 0 mm 2 mps 693 mmHg 58%
    19:00 +8°C° 0 mm 2 mps 692 mmHg 67%
    20:00 +7°C° 0 mm 2 mps 692 mmHg 71%
    21:00 +6°C° 0 mm 2 mps 692 mmHg 74%
    22:00 +6°C° 0 mm 2 mps 693 mmHg 78%
    23:00 +5°C° 0 mm 2 mps 692 mmHg 80%
    Show more